User: anonymous   Login
Location: *
(50.2903°S, 172.5375°W)
Time: 11:23:04
(UTC+00:00)
Language:

Cosmos 1602 Rocket - Orbit

View from above orbital plane
View from above orbital plane
View from above satellite
View from above satellite

Ground track
Ground track

The orbit data is extracted from the following two-line orbital elements,

1 15332U 84105B   20022.53845848 +.00000066 +00000-0 +50551-5 0  9996
2 15332 082.5338 020.6098 0022538 117.5664 003.3131 14.83407562886238
Epoch (UTC): 22 January 2020 12:55:22
Eccentricity: 0.0022538
inclination: 82.5338°
perigee height: 603 km
apogee height: 634 km
right ascension of ascending node: 20.6098°
argument of perigee: 117.5664°
revolutions per day: 14.83407562
mean anomaly at epoch: 3.3131°
orbit number at epoch: 88623

The dashed part of the orbit path shows where the satellite is in the earth's shadow,  

DLR